When you browse on this site, cookies collect data to enhance your experience and personalize the content and advertising you see.
Visit our Privacy Policy to learn more. By continuing to use the site, you agree to this use of cookies and data.

Hourly Weather Canete

Today, 6 August, Thursday

Time Temperature Precipitation Wind Pressure Humidity
00:00 +6°C° 0 mm 1 mps 766 mmHg 95%
01:00 +6°C° 0 mm 1 mps 766 mmHg 94%
02:00 +5°C° 0 mm 1 mps 766 mmHg 94%
03:00 +5°C° 0 mm 1 mps 765 mmHg 95%
04:00 +5°C° 0 mm 1 mps 765 mmHg 95%
05:00 +4°C° 0 mm 2 mps 764 mmHg 95%
06:00 +4°C° 0 mm 2 mps 764 mmHg 95%
07:00 +4°C° 0 mm 2 mps 764 mmHg 95%
08:00 +6°C° 0 mm 2 mps 764 mmHg 89%
09:00 +7°C° 0 mm 3 mps 764 mmHg 83%
10:00 +9°C° 0 mm 3 mps 763 mmHg 77%
11:00 +10°C° 0 mm 3 mps 763 mmHg 70%
12:00 +11°C° 0 mm 4 mps 762 mmHg 63%
13:00 +12°C° 0 mm 4 mps 761 mmHg 56%
14:00 +11°C° 0 mm 4 mps 761 mmHg 61%
15:00 +10°C° 0 mm 4 mps 761 mmHg 67%
16:00 +10°C° 0 mm 4 mps 761 mmHg 72%
17:00 +7°C° 0 mm 4 mps 762 mmHg 76%
18:00 +6°C° 0 mm 4 mps 762 mmHg 81%
19:00 +5°C° 0 mm 4 mps 762 mmHg 85%
20:00 +5°C° 0 mm 3 mps 762 mmHg 83%
21:00 +4°C° 0 mm 3 mps 762 mmHg 80%
22:00 +4°C° 0 mm 3 mps 762 mmHg 77%
23:00 +4°C° 0 mm 3 mps 762 mmHg 78%

Tomorrow, 7 August, Friday

Time Temperature Precipitation Wind Pressure Humidity
00:00 +4°C° 0 mm 3 mps 761 mmHg 78%
01:00 +4°C° 0 mm 3 mps 761 mmHg 78%
02:00 +4°C° 0 mm 3 mps 761 mmHg 79%
03:00 +4°C° 0 mm 3 mps 761 mmHg 79%
04:00 +4°C° 0 mm 3 mps 761 mmHg 79%
05:00 +5°C° 0 mm 2 mps 761 mmHg 79%
06:00 +5°C° 0 mm 2 mps 761 mmHg 79%
07:00 +5°C° 0 mm 2 mps 761 mmHg 80%
08:00 +7°C° 0 mm 2 mps 761 mmHg 74%
09:00 +9°C° 0 mm 2 mps 761 mmHg 69%
10:00 +11°C° 0 mm 3 mps 761 mmHg 63%
11:00 +12°C° 0 mm 3 mps 760 mmHg 63%
12:00 +13°C° 0 mm 3 mps 760 mmHg 62%
13:00 +14°C° 0 mm 3 mps 759 mmHg 61%
14:00 +13°C° 0 mm 3 mps 759 mmHg 66%
15:00 +12°C° 0 mm 3 mps 759 mmHg 71%
16:00 +12°C° 0 mm 3 mps 759 mmHg 76%
17:00 +10°C° 0 mm 3 mps 759 mmHg 81%
18:00 +9°C° 0 mm 2 mps 759 mmHg 86%
19:00 +7°C° 0 mm 2 mps 760 mmHg 91%
20:00 +7°C° 0 mm 2 mps 760 mmHg 89%
21:00 +8°C° 0 mm 1 mps 760 mmHg 87%
22:00 +8°C° 0 mm 1 mps 760 mmHg 85%
23:00 +8°C° 0 mm 1 mps 760 mmHg 84%

Day after tomorrow, 8 August, Saturday

Time Temperature Precipitation Wind Pressure Humidity
00:00 +8°C° 0 mm 1 mps 760 mmHg 83%
01:00 +8°C° 0 mm 1 mps 760 mmHg 82%
02:00 +8°C° 0 mm 1 mps 760 mmHg 83%
03:00 +8°C° 0 mm 1 mps 759 mmHg 84%
04:00 +8°C° 0 mm 1 mps 759 mmHg 85%
05:00 +8°C° 0 mm 1 mps 759 mmHg 83%
06:00 +8°C° 0 mm 1 mps 759 mmHg 80%
07:00 +8°C° 0 mm 1 mps 759 mmHg 78%
08:00 +10°C° 0 mm 1 mps 759 mmHg 74%
09:00 +12°C° 0 mm 1 mps 759 mmHg 69%
10:00 +14°C° 0 mm 1 mps 759 mmHg 65%
11:00 +14°C° 0 mm 2 mps 759 mmHg 65%
12:00 +15°C° 0 mm 2 mps 759 mmHg 66%
13:00 +15°C° 0 mm 2 mps 758 mmHg 66%
14:00 +14°C° 0 mm 2 mps 758 mmHg 71%
15:00 +14°C° 0 mm 2 mps 758 mmHg 76%
16:00 +13°C° 0 mm 2 mps 757 mmHg 81%
17:00 +12°C° 0 mm 2 mps 757 mmHg 85%
18:00 +10°C° 0 mm 2 mps 757 mmHg 90%
19:00 +9°C° 0 mm 2 mps 757 mmHg 95%
20:00 +9°C° 0 mm 3 mps 757 mmHg 94%
21:00 +10°C° 0 mm 3 mps 757 mmHg 93%
22:00 +10°C° 0 mm 4 mps 756 mmHg 92%
23:00 +10°C° 0.7 mm 4 mps 756 mmHg 94%

9 August, Sunday

Time Temperature Precipitation Wind Pressure Humidity
00:00 +10°C° 0.7 mm 4 mps 756 mmHg 95%
01:00 +10°C° 0.7 mm 4 mps 756 mmHg 97%
02:00 +10°C° 0.7 mm 4 mps 756 mmHg 98%
03:00 +11°C° 0.7 mm 3 mps 756 mmHg 98%
04:00 +11°C° 0.7 mm 3 mps 756 mmHg 99%
05:00 +11°C° 0.7 mm 3 mps 756 mmHg 99%
06:00 +12°C° 0.7 mm 2 mps 757 mmHg 99%
07:00 +12°C° 0.7 mm 2 mps 757 mmHg 99%
08:00 +11°C° 0.5 mm 3 mps 757 mmHg 98%
09:00 +11°C° 0.5 mm 3 mps 758 mmHg 98%
10:00 +11°C° 0.5 mm 4 mps 758 mmHg 97%
11:00 +11°C° 0.1 mm 4 mps 759 mmHg 96%
12:00 +10°C° 0.1 mm 4 mps 759 mmHg 95%
13:00 +8°C° 0.1 mm 4 mps 760 mmHg 94%
14:00 +8°C° 0 mm 4 mps 760 mmHg 92%
15:00 +8°C° 0 mm 3 mps 760 mmHg 91%
16:00 +8°C° 0 mm 3 mps 761 mmHg 89%
17:00 +7°C° 0 mm 3 mps 761 mmHg 89%
18:00 +7°C° 0 mm 2 mps 762 mmHg 89%
19:00 +6°C° 0 mm 2 mps 763 mmHg 89%
20:00 +6°C° 0 mm 2 mps 763 mmHg 89%
21:00 +6°C° 0 mm 2 mps 764 mmHg 90%
22:00 +7°C° 0 mm 1 mps 764 mmHg 90%
23:00 +7°C° 0.1 mm 1 mps 764 mmHg 90%

10 August, Monday

Time Temperature Precipitation Wind Pressure Humidity
00:00 +7°C° 0.1 mm 1 mps 764 mmHg 90%
01:00 +7°C° 0.1 mm 1 mps 764 mmHg 90%
02:00 +6°C° 0.1 mm 2 mps 764 mmHg 91%
03:00 +6°C° 0.1 mm 2 mps 764 mmHg 92%
04:00 +6°C° 0.1 mm 2 mps 764 mmHg 94%
05:00 +6°C° 0.1 mm 2 mps 764 mmHg 93%
06:00 +5°C° 0.1 mm 3 mps 764 mmHg 93%
07:00 +5°C° 0.1 mm 3 mps 765 mmHg 92%
08:00 +5°C° 0 mm 3 mps 765 mmHg 87%
09:00 +7°C° 0 mm 3 mps 766 mmHg 82%
10:00 +8°C° 0 mm 3 mps 766 mmHg 77%
11:00 +8°C° 0 mm 3 mps 766 mmHg 72%
12:00 +8°C° 0 mm 4 mps 766 mmHg 67%
13:00 +8°C° 0 mm 4 mps 765 mmHg 63%
14:00 +8°C° 0 mm 4 mps 765 mmHg 66%
15:00 +7°C° 0 mm 4 mps 765 mmHg 69%
16:00 +7°C° 0 mm 4 mps 765 mmHg 71%
17:00 +7°C° 0 mm 3 mps 765 mmHg 77%
18:00 +4°C° 0 mm 3 mps 765 mmHg 83%
19:00 +4°C° 0 mm 2 mps 765 mmHg 89%
20:00 +4°C° 0 mm 2 mps 765 mmHg 89%
21:00 +3°C° 0 mm 2 mps 765 mmHg 89%
22:00 +3°C° 0 mm 2 mps 765 mmHg 89%
23:00 +4°C° 0 mm 1 mps 765 mmHg 88%

11 August, Tuesday

Time Temperature Precipitation Wind Pressure Humidity
00:00 +4°C° 0 mm 1 mps 764 mmHg 87%
01:00 +5°C° 0 mm 1 mps 764 mmHg 85%
02:00 +4°C° 0 mm 1 mps 763 mmHg 87%
03:00 +3°C° 0 mm 2 mps 763 mmHg 89%
04:00 +3°C° 0 mm 2 mps 762 mmHg 90%
05:00 +3°C° 0 mm 2 mps 762 mmHg 89%
06:00 +3°C° 0 mm 2 mps 761 mmHg 88%
07:00 +3°C° 0 mm 2 mps 761 mmHg 87%
08:00 +5°C° 0 mm 2 mps 761 mmHg 79%
09:00 +7°C° 0 mm 2 mps 760 mmHg 71%
10:00 +9°C° 0 mm 2 mps 760 mmHg 63%
11:00 +9°C° 0 mm 2 mps 759 mmHg 63%
12:00 +10°C° 0 mm 2 mps 759 mmHg 64%
13:00 +10°C° 0 mm 3 mps 758 mmHg 64%
14:00 +10°C° 0 mm 3 mps 758 mmHg 67%
15:00 +9°C° 0 mm 2 mps 757 mmHg 70%
16:00 +9°C° 0 mm 2 mps 757 mmHg 72%
17:00 +8°C° 0 mm 2 mps 757 mmHg 78%
18:00 +6°C° 0 mm 2 mps 757 mmHg 85%
19:00 +6°C° 0 mm 1 mps 757 mmHg 91%
20:00 +6°C° 0 mm 1 mps 757 mmHg 91%
21:00 +6°C° 0 mm 1 mps 757 mmHg 91%
22:00 +6°C° 0 mm 1 mps 757 mmHg 91%
23:00 +6°C° 0 mm 1 mps 757 mmHg 90%
Show more